QPF
0.00 0.00 0.01 0.02 0.01 0.01 0.01 0.01 0.02 0.02 0.01 0.01 0.01 0.01 0.01 0.00 0.00 0.00 0.00 0.01 0.01 0.01 0.01 0.01 0.00 0.01 0.01 0.01 0.01 0.01 0.01 0.01 0.01 0.01 0.00 0.01 0.01 0.01 0.01 0.01 0.01 0.01 0.02
0.01 0.01 0.01 0.02 0.03 0.02 0.02 0.02 0.02 0.01 0.01 0.01 0.01 0.00 0.01 0.00 0.01 0.01 0.01 0.01 0.01 0.01 0.01 0.00 0.00 0.01 0.01 0.00 0.00 0.00 0.00 0.01 0.01 0.01 0.00 0.01 0.01 0.01 0.01 0.01 0.02 0.02 0.02
0.01 0.02 0.02 0.02 0.03 0.03 0.03 0.02 0.01 0.01 0.00 0.00 0.00 0.00 0.00 0.00 0.01 0.01 0.01 0.01 0.00 0.00 0.00 0.00 0.00 0.00 0.00 0.00 0.00 0.00 0.00 0.00 0.01 0.01 0.01 0.01 0.02 0.01 0.01 0.01 0.01 0.01 0.01
0.02 0.03 0.02 0.03 0.03 0.03 0.03 0.02 0.01 0.01 0.01 0.00 0.01 0.01 0.00 0.01 0.01 0.01 0.00 0.01 0.00 0.00 0.00 0.00 0.00 0.00 0.01 0.01 0.01 0.01 0.00 0.00 0.01 0.01 0.01 0.01 0.01 0.01 0.01 0.01 0.01 0.01 0.01
0.04 0.05 0.05 0.04 0.03 0.02 0.02 0.02 0.02 0.02 0.02 0.02 0.02 0.02 0.01 0.01 0.01 0.01 0.00 0.00 0.00 0.00 0.00 0.01 0.01 0.02 0.02 0.02 0.01 0.01 0.01 0.01 0.01 0.01 0.01 0.01 0.01 0.01 0.01 0.02 0.02 0.02 0.02
0.06 0.07 0.05 0.03 0.03 0.03 0.02 0.02 0.02 0.02 0.01 0.02 0.02 0.03 0.02 0.02 0.01 0.01 0.00 0.00 0.00 0.01 0.01 0.01 0.02 0.02 0.01 0.02 0.02 0.01 0.01 0.01 0.01 0.01 0.01 0.00 0.01 0.01 0.02 0.03 0.02 0.02 0.02
0.04 0.06 0.04 0.05 0.03 0.03 0.02 0.01 0.01 0.02 0.01 0.01 0.02 0.02 0.02 0.01 0.01 0.01 0.01 0.01 0.01 0.02 0.02 0.02 0.02 0.02 0.01 0.02 0.02 0.01 0.01 0.01 0.01 0.02 0.01 0.01 0.00 0.01 0.03 0.04 0.04 0.03 0.03
0.03 0.03 0.04 0.03 0.02 0.02 0.01 0.01 0.01 0.01 0.01 0.01 0.02 0.01 0.01 0.01 0.01 0.02 0.02 0.02 0.02 0.03 0.03 0.02 0.02 0.02 0.02 0.02 0.02 0.02 0.02 0.02 0.01 0.01 0.01 0.00 0.01 0.01 0.02 0.04 0.06 0.06 0.04
0.02 0.03 0.04 0.03 0.03 0.02 0.02 0.01 0.01 0.01 0.01 0.01 0.02 0.02 0.01 0.01 0.02 0.02 0.02 0.03 0.03 0.03 0.03 0.03 0.02 0.02 0.01 0.01 0.01 0.01 0.02 0.02 0.01 0.00 0.00 0.00 0.00 0.01 0.02 0.04 0.05 0.06 0.06
0.02 0.04 0.04 0.03 0.04 0.04 0.03 0.03 0.03 0.03 0.02 0.02 0.02 0.02 0.01 0.01 0.01 0.02 0.03 0.03 0.04 0.04 0.05 0.05 0.04 0.03 0.02 0.02 0.02 0.02 0.03 0.02 0.01 0.01 0.01 0.01 0.00 0.01 0.02 0.03 0.04 0.05 0.05
0.01 0.02 0.03 0.03 0.03 0.04 0.04 0.04 0.04 0.04 0.04 0.04 0.03 0.03 0.02 0.02 0.02 0.03 0.02 0.02 0.03 0.05 0.05 0.06 0.06 0.06 0.05 0.03 0.02 0.03 0.04 0.03 0.02 0.02 0.01 0.00 0.00 0.01 0.02 0.03 0.04 0.05 0.05
0.02 0.02 0.02 0.02 0.04 0.04 0.03 0.03 0.03 0.03 0.04 0.04 0.04 0.04 0.04 0.03 0.03 0.03 0.03 0.03 0.04 0.05 0.05 0.05 0.06 0.06 0.05 0.05 0.04 0.04 0.04 0.04 0.04 0.03 0.01 0.01 0.01 0.01 0.02 0.03 0.04 0.04 0.04
0.02 0.02 0.02 0.02 0.04 0.03 0.03 0.03 0.02 0.02 0.03 0.04 0.05 0.05 0.05 0.03 0.03 0.03 0.04 0.04 0.04 0.05 0.05 0.05 0.06 0.06 0.06 0.06 0.06 0.05 0.05 0.06 0.04 0.03 0.02 0.03 0.03 0.02 0.02 0.03 0.03 0.04 0.04
0.00 0.01 0.01 0.02 0.03 0.03 0.02 0.02 0.02 0.03 0.04 0.05 0.04 0.03 0.03 0.03 0.03 0.03 0.03 0.03 0.04 0.04 0.04 0.05 0.05 0.05 0.04 0.04 0.03 0.03 0.04 0.04 0.03 0.03 0.02 0.03 0.03 0.03 0.03 0.03 0.03 0.04 0.04
0.00 0.00 0.01 0.02 0.02 0.02 0.02 0.02 0.03 0.04 0.05 0.06 0.04 0.02 0.02 0.03 0.03 0.03 0.02 0.02 0.02 0.03 0.03 0.04 0.05 0.05 0.04 0.03 0.03 0.02 0.02 0.03 0.03 0.03 0.02 0.02 0.03 0.04 0.04 0.04 0.04 0.04 0.04
0.01 0.01 0.01 0.01 0.01 0.01 0.02 0.02 0.03 0.03 0.04 0.03 0.02 0.02 0.02 0.02 0.03 0.03 0.02 0.02 0.02 0.03 0.04 0.05 0.05 0.06 0.05 0.04 0.03 0.03 0.03 0.03 0.03 0.03 0.03 0.03 0.03 0.04 0.05 0.06 0.05 0.05 0.06
0.02 0.02 0.01 0.01 0.01 0.02 0.02 0.02 0.02 0.02 0.03 0.03 0.02 0.02 0.02 0.02 0.02 0.02 0.02 0.02 0.03 0.04 0.04 0.05 0.05 0.06 0.04 0.04 0.03 0.03 0.03 0.02 0.02 0.03 0.03 0.03 0.03 0.03 0.05 0.06 0.07 0.06 0.06
0.03 0.03 0.03 0.02 0.03 0.03 0.04 0.03 0.02 0.02 0.03 0.03 0.02 0.03 0.03 0.03 0.03 0.03 0.03 0.03 0.03 0.03 0.03 0.04 0.04 0.05 0.05 0.05 0.04 0.04 0.03 0.03 0.03 0.03 0.02 0.02 0.02 0.03 0.04 0.04 0.05 0.06 0.06
0.05 0.05 0.06 0.06 0.05 0.05 0.05 0.04 0.03 0.03 0.03 0.03 0.03 0.04 0.05 0.05 0.04 0.05 0.05 0.05 0.04 0.04 0.04 0.04 0.05 0.04 0.04 0.05 0.05 0.04 0.04 0.04 0.04 0.02 0.02 0.02 0.02 0.03 0.04 0.04 0.03 0.04 0.06
0.04 0.05 0.07 0.09 0.11 0.11 0.09 0.05 0.04 0.04 0.04 0.03 0.04 0.05 0.05 0.07 0.07 0.06 0.05 0.05 0.05 0.05 0.04 0.04 0.04 0.04 0.05 0.05 0.05 0.04 0.02 0.02 0.02 0.02 0.02 0.02 0.02 0.02 0.03 0.03 0.03 0.03 0.04
0.05 0.05 0.09 0.11 0.13 0.12 0.10 0.06 0.05 0.05 0.04 0.04 0.04 0.05 0.05 0.07 0.07 0.05 0.04 0.04 0.04 0.04 0.03 0.03 0.02 0.02 0.03 0.05 0.05 0.04 0.03 0.02 0.02 0.02 0.02 0.03 0.03 0.03 0.04 0.04 0.04 0.03 0.04
0.04 0.05 0.09 0.09 0.09 0.09 0.10 0.08 0.07 0.07 0.06 0.05 0.04 0.05 0.05 0.05 0.04 0.04 0.04 0.04 0.03 0.03 0.02 0.02 0.02 0.02 0.02 0.04 0.05 0.05 0.04 0.03 0.03 0.02 0.02 0.03 0.03 0.04 0.04 0.04 0.04 0.03 0.04
0.03 0.04 0.06 0.08 0.07 0.09 0.10 0.10 0.08 0.07 0.07 0.07 0.06 0.05 0.05 0.04 0.04 0.04 0.04 0.04 0.03 0.02 0.02 0.02 0.02 0.02 0.02 0.03 0.04 0.06 0.05 0.04 0.03 0.02 0.02 0.02 0.03 0.03 0.03 0.03 0.03 0.03 0.03
0.04 0.05 0.05 0.05 0.06 0.07 0.08 0.09 0.07 0.07 0.07 0.07 0.07 0.06 0.05 0.06 0.06 0.05 0.04 0.04 0.03 0.03 0.02 0.02 0.02 0.03 0.03 0.03 0.03 0.04 0.05 0.06 0.06 0.04 0.03 0.02 0.03 0.03 0.03 0.03 0.03 0.04 0.04
0.03 0.05 0.05 0.04 0.04 0.04 0.05 0.06 0.06 0.06 0.06 0.07 0.08 0.09 0.08 0.07 0.05 0.04 0.05 0.05 0.05 0.03 0.03 0.02 0.03 0.03 0.03 0.03 0.03 0.03 0.05 0.08 0.07 0.06 0.04 0.04 0.04 0.04 0.04 0.05 0.05 0.05 0.05
0.02 0.02 0.03 0.03 0.04 0.04 0.05 0.06 0.06 0.06 0.06 0.06 0.06 0.07 0.08 0.07 0.06 0.05 0.04 0.05 0.05 0.05 0.04 0.03 0.03 0.03 0.03 0.03 0.04 0.04 0.05 0.06 0.07 0.06 0.05 0.05 0.06 0.06 0.06 0.06 0.06 0.05 0.05
MSLP
1006.27 1006.12 1006.28 1006.69 1007.24 1007.82 1008.34 1008.75 1009.06 1009.29 1009.51 1009.78 1010.13 1010.57 1011.07 1011.59 1012.07 1012.47 1012.78 1013.00 1013.17 1013.34 1013.53 1013.77 1014.05 1014.35 1014.63 1014.85 1015.00 1015.07 1015.08 1015.08 1015.11 1015.20 1015.35 1015.57 1015.82 1016.07 1016.28 1016.44 1016.54 1016.60 1016.67
1006.24 1006.20 1006.42 1006.84 1007.35 1007.86 1008.31 1008.66 1008.93 1009.16 1009.41 1009.74 1010.16 1010.68 1011.25 1011.81 1012.30 1012.69 1012.96 1013.13 1013.24 1013.36 1013.54 1013.78 1014.08 1014.42 1014.74 1015.01 1015.18 1015.25 1015.26 1015.23 1015.22 1015.28 1015.41 1015.62 1015.88 1016.16 1016.40 1016.60 1016.73 1016.81 1016.87
1006.14 1006.22 1006.50 1006.92 1007.40 1007.87 1008.26 1008.58 1008.83 1009.07 1009.35 1009.73 1010.22 1010.78 1011.39 1011.96 1012.45 1012.81 1013.04 1013.16 1013.25 1013.35 1013.51 1013.77 1014.11 1014.48 1014.85 1015.14 1015.32 1015.39 1015.37 1015.30 1015.24 1015.24 1015.34 1015.53 1015.79 1016.08 1016.37 1016.61 1016.78 1016.90 1016.99
1005.98 1006.17 1006.52 1006.98 1007.45 1007.90 1008.27 1008.56 1008.82 1009.07 1009.38 1009.79 1010.30 1010.89 1011.50 1012.07 1012.54 1012.87 1013.07 1013.18 1013.25 1013.35 1013.53 1013.81 1014.18 1014.58 1014.97 1015.26 1015.44 1015.48 1015.42 1015.29 1015.18 1015.12 1015.16 1015.32 1015.57 1015.88 1016.19 1016.48 1016.71 1016.88 1017.01
1005.82 1006.12 1006.54 1007.04 1007.53 1007.98 1008.36 1008.66 1008.92 1009.19 1009.52 1009.94 1010.45 1011.02 1011.61 1012.16 1012.60 1012.91 1013.10 1013.22 1013.30 1013.43 1013.64 1013.94 1014.33 1014.74 1015.12 1015.40 1015.54 1015.54 1015.42 1015.24 1015.06 1014.94 1014.94 1015.06 1015.30 1015.60 1015.95 1016.27 1016.56 1016.78 1016.96
1005.72 1006.10 1006.59 1007.13 1007.66 1008.14 1008.54 1008.86 1009.14 1009.43 1009.76 1010.16 1010.64 1011.18 1011.72 1012.22 1012.64 1012.95 1013.16 1013.30 1013.43 1013.60 1013.84 1014.16 1014.55 1014.95 1015.30 1015.53 1015.62 1015.57 1015.40 1015.16 1014.93 1014.77 1014.73 1014.82 1015.04 1015.34 1015.70 1016.05 1016.37 1016.64 1016.86
1005.69 1006.14 1006.69 1007.27 1007.84 1008.36 1008.79 1009.15 1009.46 1009.75 1010.06 1010.44 1010.87 1011.34 1011.83 1012.29 1012.68 1012.99 1013.22 1013.41 1013.60 1013.82 1014.09 1014.43 1014.80 1015.16 1015.46 1015.63 1015.66 1015.56 1015.34 1015.07 1014.82 1014.64 1014.58 1014.66 1014.86 1015.16 1015.51 1015.87 1016.20 1016.49 1016.73
1005.76 1006.25 1006.82 1007.44 1008.04 1008.59 1009.06 1009.46 1009.79 1010.08 1010.38 1010.71 1011.08 1011.48 1011.90 1012.31 1012.68 1013.00 1013.27 1013.51 1013.75 1014.02 1014.32 1014.66 1015.00 1015.31 1015.54 1015.65 1015.63 1015.48 1015.25 1014.98 1014.73 1014.56 1014.52 1014.60 1014.79 1015.07 1015.40 1015.74 1016.05 1016.33 1016.56
1005.88 1006.38 1006.96 1007.58 1008.20 1008.77 1009.28 1009.70 1010.05 1010.35 1010.63 1010.92 1011.22 1011.56 1011.92 1012.27 1012.62 1012.94 1013.24 1013.53 1013.82 1014.13 1014.45 1014.78 1015.09 1015.34 1015.51 1015.56 1015.50 1015.34 1015.11 1014.86 1014.66 1014.53 1014.51 1014.60 1014.78 1015.04 1015.33 1015.62 1015.90 1016.14 1016.35
1006.03 1006.51 1007.06 1007.67 1008.27 1008.84 1009.36 1009.80 1010.16 1010.48 1010.74 1011.00 1011.26 1011.54 1011.84 1012.16 1012.47 1012.80 1013.12 1013.44 1013.77 1014.10 1014.43 1014.75 1015.02 1015.23 1015.34 1015.36 1015.28 1015.12 1014.92 1014.72 1014.57 1014.50 1014.51 1014.61 1014.79 1015.00 1015.24 1015.48 1015.69 1015.88 1016.05
1006.13 1006.58 1007.10 1007.66 1008.23 1008.78 1009.28 1009.72 1010.10 1010.42 1010.69 1010.93 1011.17 1011.42 1011.68 1011.96 1012.26 1012.57 1012.90 1013.24 1013.59 1013.94 1014.27 1014.57 1014.81 1014.98 1015.07 1015.06 1014.98 1014.85 1014.70 1014.56 1014.46 1014.44 1014.48 1014.58 1014.74 1014.90 1015.08 1015.24 1015.38 1015.51 1015.64
1006.14 1006.58 1007.05 1007.55 1008.06 1008.56 1009.04 1009.47 1009.85 1010.18 1010.47 1010.72 1010.96 1011.20 1011.45 1011.71 1012.00 1012.30 1012.63 1012.98 1013.33 1013.68 1014.00 1014.29 1014.52 1014.68 1014.75 1014.75 1014.69 1014.59 1014.48 1014.39 1014.34 1014.34 1014.39 1014.48 1014.58 1014.69 1014.79 1014.87 1014.94 1015.02 1015.12
1006.04 1006.46 1006.90 1007.35 1007.80 1008.25 1008.68 1009.09 1009.47 1009.82 1010.13 1010.41 1010.68 1010.94 1011.19 1011.46 1011.74 1012.04 1012.36 1012.70 1013.05 1013.39 1013.71 1014.00 1014.22 1014.39 1014.48 1014.50 1014.47 1014.40 1014.33 1014.27 1014.24 1014.24 1014.26 1014.30 1014.34 1014.37 1014.38 1014.38 1014.40 1014.43 1014.52
1005.81 1006.26 1006.68 1007.10 1007.50 1007.89 1008.28 1008.66 1009.04 1009.40 1009.74 1010.06 1010.38 1010.67 1010.96 1011.25 1011.54 1011.84 1012.16 1012.48 1012.82 1013.15 1013.47 1013.76 1014.00 1014.18 1014.30 1014.36 1014.36 1014.34 1014.29 1014.24 1014.19 1014.16 1014.12 1014.09 1014.04 1013.98 1013.90 1013.83 1013.78 1013.79 1013.87
1005.47 1005.97 1006.42 1006.82 1007.20 1007.56 1007.91 1008.27 1008.64 1009.00 1009.38 1009.75 1010.11 1010.46 1010.80 1011.11 1011.42 1011.73 1012.04 1012.36 1012.68 1013.00 1013.32 1013.62 1013.88 1014.10 1014.26 1014.36 1014.40 1014.41 1014.37 1014.31 1014.23 1014.14 1014.02 1013.90 1013.75 1013.59 1013.43 1013.29 1013.20 1013.18 1013.26
1005.05 1005.63 1006.14 1006.57 1006.95 1007.30 1007.64 1007.98 1008.34 1008.72 1009.12 1009.53 1009.93 1010.33 1010.71 1011.06 1011.40 1011.71 1012.02 1012.32 1012.63 1012.94 1013.26 1013.56 1013.85 1014.10 1014.31 1014.46 1014.56 1014.58 1014.56 1014.48 1014.36 1014.20 1014.01 1013.78 1013.54 1013.29 1013.05 1012.85 1012.72 1012.68 1012.76
1004.58 1005.25 1005.84 1006.34 1006.77 1007.14 1007.50 1007.84 1008.19 1008.58 1008.98 1009.41 1009.84 1010.27 1010.68 1011.07 1011.42 1011.74 1012.04 1012.33 1012.62 1012.92 1013.22 1013.54 1013.85 1014.14 1014.39 1014.59 1014.72 1014.79 1014.78 1014.69 1014.54 1014.32 1014.06 1013.76 1013.44 1013.12 1012.82 1012.57 1012.40 1012.34 1012.40
1004.10 1004.87 1005.55 1006.14 1006.64 1007.08 1007.46 1007.82 1008.19 1008.56 1008.96 1009.39 1009.82 1010.26 1010.68 1011.08 1011.44 1011.76 1012.06 1012.33 1012.60 1012.87 1013.16 1013.47 1013.78 1014.10 1014.39 1014.64 1014.82 1014.92 1014.93 1014.86 1014.69 1014.45 1014.15 1013.80 1013.43 1013.07 1012.72 1012.44 1012.25 1012.16 1012.21
1003.65 1004.47 1005.24 1005.93 1006.53 1007.05 1007.50 1007.90 1008.27 1008.64 1009.02 1009.42 1009.84 1010.26 1010.67 1011.06 1011.41 1011.73 1012.00 1012.25 1012.49 1012.73 1013.00 1013.29 1013.60 1013.93 1014.24 1014.53 1014.75 1014.89 1014.94 1014.89 1014.74 1014.51 1014.20 1013.85 1013.47 1013.09 1012.74 1012.44 1012.23 1012.12 1012.13
1003.26 1004.09 1004.92 1005.69 1006.40 1007.01 1007.54 1007.99 1008.39 1008.76 1009.11 1009.47 1009.84 1010.22 1010.60 1010.96 1011.30 1011.60 1011.85 1012.08 1012.28 1012.49 1012.72 1012.98 1013.28 1013.59 1013.92 1014.22 1014.48 1014.66 1014.75 1014.74 1014.64 1014.43 1014.16 1013.82 1013.46 1013.10 1012.76 1012.48 1012.26 1012.14 1012.13
1002.93 1003.72 1004.56 1005.41 1006.20 1006.92 1007.53 1008.05 1008.48 1008.84 1009.17 1009.48 1009.80 1010.13 1010.46 1010.79 1011.10 1011.37 1011.61 1011.81 1011.99 1012.16 1012.35 1012.58 1012.84 1013.13 1013.44 1013.75 1014.02 1014.24 1014.36 1014.40 1014.34 1014.18 1013.95 1013.66 1013.35 1013.03 1012.73 1012.47 1012.27 1012.15 1012.12
1002.69 1003.39 1004.21 1005.08 1005.94 1006.74 1007.44 1008.02 1008.49 1008.86 1009.17 1009.44 1009.70 1009.98 1010.26 1010.55 1010.83 1011.09 1011.31 1011.50 1011.66 1011.80 1011.96 1012.14 1012.36 1012.62 1012.90 1013.19 1013.46 1013.68 1013.83 1013.90 1013.87 1013.76 1013.58 1013.34 1013.08 1012.81 1012.56 1012.34 1012.17 1012.07 1012.04
1002.56 1003.12 1003.87 1004.73 1005.63 1006.49 1007.26 1007.90 1008.42 1008.80 1009.10 1009.34 1009.56 1009.78 1010.02 1010.28 1010.54 1010.79 1011.01 1011.20 1011.36 1011.49 1011.62 1011.77 1011.95 1012.16 1012.40 1012.65 1012.89 1013.10 1013.24 1013.31 1013.30 1013.21 1013.06 1012.87 1012.65 1012.43 1012.22 1012.04 1011.92 1011.84 1011.83
1002.54 1002.96 1003.62 1004.43 1005.33 1006.22 1007.03 1007.72 1008.27 1008.68 1008.97 1009.19 1009.38 1009.57 1009.78 1010.02 1010.28 1010.53 1010.77 1010.97 1011.14 1011.28 1011.40 1011.52 1011.66 1011.83 1012.02 1012.22 1012.41 1012.57 1012.68 1012.72 1012.70 1012.60 1012.46 1012.28 1012.08 1011.89 1011.72 1011.59 1011.50 1011.46 1011.48
1002.68 1002.95 1003.49 1004.24 1005.10 1005.98 1006.81 1007.53 1008.10 1008.53 1008.83 1009.04 1009.22 1009.39 1009.59 1009.82 1010.08 1010.34 1010.60 1010.83 1011.02 1011.18 1011.31 1011.42 1011.54 1011.66 1011.80 1011.94 1012.06 1012.16 1012.21 1012.20 1012.13 1012.01 1011.84 1011.64 1011.44 1011.26 1011.11 1011.00 1010.94 1010.94 1010.99
1002.98 1003.13 1003.56 1004.21 1005.00 1005.85 1006.67 1007.39 1007.97 1008.41 1008.72 1008.93 1009.10 1009.27 1009.46 1009.69 1009.96 1010.24 1010.52 1010.78 1011.00 1011.18 1011.32 1011.43 1011.53 1011.62 1011.70 1011.77 1011.83 1011.85 1011.83 1011.76 1011.63 1011.44 1011.23 1011.00 1010.78 1010.59 1010.44 1010.34 1010.29 1010.30 1010.38
Thickness
5816 5812 5800 5796 5793 5791 5789 5787 5785 5782 5779 5776 5773 5771 5768 5765 5763 5760 5758 5757 5755 5753 5751 5750 5749 5748 5747 5746 5745 5744 5743 5742 5742 5741 5741 5740 5740 5739 5738 5738 5738 5741 5738
5818 5809 5797 5794 5790 5788 5786 5784 5781 5779 5776 5773 5770 5767 5764 5762 5760 5757 5755 5753 5751 5750 5748 5747 5746 5745 5744 5743 5742 5741 5740 5740 5739 5738 5738 5738 5738 5737 5736 5736 5736 5738 5735
5813 5805 5795 5791 5787 5785 5782 5780 5778 5775 5772 5769 5766 5763 5761 5758 5756 5754 5752 5750 5748 5747 5745 5744 5742 5741 5740 5739 5739 5738 5738 5737 5736 5736 5736 5740 5739 5735 5734 5733 5733 5732 5731
5808 5801 5795 5787 5784 5781 5779 5776 5774 5772 5768 5766 5763 5760 5758 5755 5753 5751 5750 5748 5746 5744 5743 5741 5739 5738 5737 5736 5735 5735 5735 5734 5734 5734 5737 5741 5739 5734 5731 5730 5730 5729 5728
5804 5798 5791 5784 5780 5778 5775 5773 5770 5768 5765 5762 5760 5757 5755 5752 5750 5749 5747 5746 5743 5742 5740 5738 5737 5735 5734 5733 5732 5732 5732 5731 5731 5732 5737 5738 5736 5731 5729 5728 5727 5726 5726
5799 5795 5787 5780 5776 5774 5772 5769 5767 5764 5762 5759 5756 5754 5751 5749 5747 5745 5744 5742 5740 5739 5737 5735 5734 5733 5731 5731 5730 5729 5729 5729 5729 5735 5735 5734 5733 5729 5726 5725 5725 5724 5723
5796 5791 5784 5777 5773 5770 5768 5765 5763 5761 5758 5755 5752 5750 5747 5745 5744 5742 5740 5739 5737 5735 5734 5732 5731 5729 5729 5728 5727 5726 5726 5726 5728 5733 5732 5731 5730 5726 5724 5722 5722 5721 5721
5792 5788 5781 5773 5770 5767 5764 5762 5759 5757 5754 5751 5749 5746 5744 5742 5740 5739 5737 5735 5733 5731 5730 5729 5727 5726 5725 5724 5723 5723 5722 5722 5726 5729 5728 5728 5725 5722 5721 5720 5719 5719 5718
5788 5784 5779 5773 5768 5764 5761 5758 5756 5753 5750 5748 5745 5742 5740 5738 5737 5735 5733 5731 5729 5728 5726 5725 5724 5723 5722 5721 5720 5719 5719 5719 5723 5726 5726 5725 5721 5719 5718 5717 5717 5716 5715
5782 5780 5775 5772 5767 5763 5759 5754 5752 5749 5746 5744 5741 5739 5737 5735 5734 5732 5730 5728 5726 5724 5723 5722 5721 5720 5719 5718 5717 5716 5716 5716 5722 5724 5723 5721 5717 5715 5714 5714 5714 5713 5713
5775 5775 5772 5769 5765 5762 5759 5753 5749 5745 5742 5740 5737 5735 5734 5735 5734 5732 5730 5726 5723 5721 5720 5718 5717 5716 5716 5716 5715 5714 5714 5718 5721 5720 5719 5716 5713 5712 5711 5711 5710 5710 5710
5767 5768 5767 5765 5761 5759 5757 5751 5748 5745 5741 5739 5737 5734 5733 5733 5731 5730 5726 5723 5721 5719 5717 5716 5714 5714 5714 5716 5715 5712 5715 5717 5718 5717 5716 5711 5709 5708 5708 5708 5708 5707 5707
5765 5763 5763 5760 5757 5756 5753 5749 5747 5744 5740 5737 5734 5732 5730 5729 5728 5726 5724 5721 5719 5717 5717 5715 5715 5715 5715 5714 5714 5715 5714 5714 5715 5715 5713 5708 5706 5705 5704 5704 5704 5704 5704
5761 5758 5758 5756 5753 5751 5749 5746 5743 5740 5737 5735 5731 5729 5727 5726 5724 5723 5721 5720 5718 5717 5715 5714 5713 5712 5711 5711 5711 5712 5711 5711 5711 5710 5708 5704 5702 5701 5701 5701 5701 5701 5701
5756 5754 5753 5751 5748 5745 5743 5741 5739 5736 5734 5730 5727 5725 5723 5722 5720 5719 5716 5714 5714 5713 5711 5710 5710 5708 5707 5707 5707 5707 5707 5706 5705 5705 5705 5701 5699 5698 5697 5697 5697 5697 5697
5752 5750 5749 5746 5743 5740 5737 5735 5734 5732 5728 5727 5724 5721 5718 5717 5715 5713 5712 5709 5709 5708 5706 5705 5704 5703 5703 5702 5702 5702 5701 5701 5700 5699 5701 5699 5697 5695 5694 5693 5693 5693 5693
5747 5745 5743 5742 5739 5735 5733 5731 5729 5727 5725 5722 5719 5716 5713 5712 5709 5707 5707 5705 5704 5702 5700 5699 5699 5699 5698 5698 5698 5697 5697 5696 5696 5694 5695 5695 5696 5694 5692 5690 5689 5689 5689
5743 5740 5738 5739 5734 5731 5728 5725 5724 5722 5719 5716 5714 5711 5708 5706 5703 5701 5702 5701 5698 5697 5696 5695 5694 5694 5694 5693 5693 5693 5693 5691 5690 5689 5690 5690 5691 5691 5690 5687 5685 5685 5684
5738 5735 5733 5732 5729 5726 5723 5719 5718 5715 5713 5711 5709 5706 5703 5700 5698 5697 5697 5695 5693 5692 5691 5691 5690 5688 5687 5687 5688 5687 5687 5687 5686 5686 5685 5686 5686 5685 5685 5684 5682 5681 5680
5733 5730 5728 5726 5724 5721 5719 5715 5713 5710 5708 5705 5703 5700 5697 5695 5693 5692 5692 5689 5688 5687 5686 5684 5683 5682 5681 5681 5683 5684 5683 5683 5682 5682 5680 5681 5680 5680 5681 5680 5679 5679 5676
5727 5725 5724 5721 5719 5716 5714 5711 5708 5705 5703 5701 5698 5695 5692 5690 5689 5687 5687 5684 5683 5682 5680 5679 5678 5677 5677 5677 5676 5677 5678 5679 5677 5675 5675 5675 5675 5674 5674 5674 5674 5674 5674
5723 5720 5719 5718 5716 5712 5710 5708 5705 5703 5700 5697 5695 5691 5688 5686 5684 5684 5681 5680 5679 5676 5675 5674 5672 5672 5673 5672 5670 5668 5669 5671 5670 5672 5669 5668 5668 5669 5669 5669 5668 5667 5668
5718 5716 5716 5714 5712 5709 5707 5704 5700 5697 5695 5692 5689 5686 5684 5681 5679 5678 5677 5676 5674 5673 5672 5669 5667 5665 5666 5667 5665 5661 5659 5661 5663 5665 5663 5662 5660 5660 5662 5663 5662 5662 5661
5714 5713 5712 5709 5707 5705 5703 5700 5696 5693 5690 5688 5685 5682 5679 5677 5675 5673 5672 5671 5669 5669 5667 5666 5665 5661 5659 5659 5659 5657 5655 5654 5649 5653 5656 5657 5655 5654 5655 5656 5657 5656 5655
5712 5710 5707 5704 5702 5700 5698 5695 5692 5689 5687 5684 5681 5677 5674 5673 5671 5669 5667 5666 5664 5664 5662 5660 5658 5655 5654 5653 5652 5651 5649 5647 5645 5642 5645 5648 5649 5650 5650 5649 5649 5650 5649
5708 5706 5703 5699 5697 5695 5692 5690 5687 5684 5681 5678 5675 5673 5671 5669 5667 5665 5663 5661 5660 5659 5657 5654 5652 5650 5648 5647 5645 5644 5642 5640 5639 5638 5637 5639 5640 5643 5643 5643 5643 5643 5643